Location: Easthampton
(42.2676°N, 72.6690°W)
Time: 05:57:01
(UTC+00:00)

BlueWalker 3 - Pass Details

Date: 13 December 2022
Orbit: 499 x 517 km, 53.2° (Epoch: 05 February)

Event Time Altitude Azimuth Distance (km) Brightness Sun altitude
Rises 22:19:47 0° 302° (WNW) 2,626 6.1 -11.0°
Reaches altitude 10° 22:22:04 10° 296° (WNW) 1,733 5.3 -11.3°
Maximum altitude 22:25:47 43° 225° (SW) 723 3.2 -12.0°
Drops below altitude 10° 22:29:28 10° 153° (SSE) 1,710 4.6 -12.6°
Sets 22:31:42 0° 146° (SE) 2,587 5.4 -13.0°
